When you browse on this site, cookies collect data to enhance your experience and personalize the content and advertising you see.
Visit our Privacy Policy to learn more. By continuing to use the site, you agree to this use of cookies and data.
  • In Latvia
  • List of Countries
  • For 7 days
  • Water Temperature
  • Satellite Maps
  • Weather Map
  • Weather Widgets
  • user-avatar
    Login

    Hourly Weather Zhmerynka

    Today, 19 January, Saturday

    Time Temperature Precipitation Wind Pressure Humidity
    00:00 -3°C° 0 mm 4 mps 733 mmHg 92%
    01:00 -4°C° 0 mm 4 mps 733 mmHg 92%
    02:00 -4°C° 0 mm 4 mps 733 mmHg 93%
    03:00 -5°C° 0 mm 3 mps 734 mmHg 93%
    04:00 -7°C° 0 mm 3 mps 734 mmHg 94%
    05:00 -8°C° 0 mm 3 mps 734 mmHg 94%
    06:00 -9°C° 0 mm 3 mps 735 mmHg 94%
    07:00 -10°C° 0 mm 3 mps 735 mmHg 93%
    08:00 -12°C° 0 mm 3 mps 736 mmHg 93%
    09:00 -10°C° 0 mm 3 mps 736 mmHg 92%
    10:00 -8°C° 0 mm 2 mps 737 mmHg 92%
    11:00 -7°C° 0 mm 2 mps 737 mmHg 91%
    12:00 -6°C° 0 mm 2 mps 737 mmHg 91%
    13:00 -6°C° 0 mm 2 mps 738 mmHg 91%
    14:00 -3°C° 0 mm 1 mps 737 mmHg 92%
    15:00 -6°C° 0 mm 2 mps 738 mmHg 92%
    16:00 -8°C° 0 mm 2 mps 738 mmHg 92%
    17:00 -9°C° 0 mm 2 mps 738 mmHg 92%
    18:00 -9°C° 0 mm 1 mps 738 mmHg 91%
    19:00 -9°C° 0 mm 1 mps 738 mmHg 91%
    20:00 -10°C° 0 mm 1 mps 738 mmHg 91%
    21:00 -10°C° 0 mm 1 mps 738 mmHg 90%
    22:00 -10°C° 0 mm 1 mps 738 mmHg 90%
    23:00 -11°C° 0 mm 1 mps 738 mmHg 89%

    Tomorrow, 20 January, Sunday

    Time Temperature Precipitation Wind Pressure Humidity
    00:00 -10°C° 0 mm 1 mps 738 mmHg 88%
    01:00 -10°C° 0 mm 1 mps 738 mmHg 88%
    02:00 -10°C° 0 mm 1 mps 738 mmHg 87%
    03:00 -12°C° 0 mm 2 mps 738 mmHg 88%
    04:00 -10°C° 0 mm 2 mps 737 mmHg 88%
    05:00 -10°C° 0 mm 2 mps 737 mmHg 89%
    06:00 -9°C° 0.1 mm 2 mps 737 mmHg 90%
    07:00 -10°C° 0.1 mm 3 mps 737 mmHg 91%
    08:00 -9°C° 0.1 mm 3 mps 737 mmHg 92%
    09:00 -8°C° 0.2 mm 3 mps 736 mmHg 92%
    10:00 -9°C° 0.2 mm 4 mps 736 mmHg 93%
    11:00 -8°C° 0.2 mm 4 mps 736 mmHg 94%
    12:00 -8°C° 0.3 mm 4 mps 736 mmHg 94%
    13:00 -8°C° 0.3 mm 4 mps 735 mmHg 94%
    14:00 -7°C° 0.3 mm 4 mps 735 mmHg 94%
    15:00 -6°C° 0.3 mm 3 mps 734 mmHg 95%
    16:00 -6°C° 0.3 mm 3 mps 734 mmHg 96%
    17:00 -5°C° 0.3 mm 2 mps 734 mmHg 97%
    18:00 -5°C° 0.5 mm 2 mps 734 mmHg 97%
    19:00 -3°C° 0.5 mm 1 mps 733 mmHg 97%
    20:00 -3°C° 0.5 mm 1 mps 733 mmHg 98%
    21:00 -3°C° 0.4 mm 1 mps 733 mmHg 98%
    22:00 -5°C° 0.4 mm 2 mps 733 mmHg 97%
    23:00 -5°C° 0.4 mm 2 mps 733 mmHg 97%

    Day after tomorrow, 21 January, Monday

    Time Temperature Precipitation Wind Pressure Humidity
    00:00 -5°C° 0.2 mm 2 mps 733 mmHg 97%
    01:00 -7°C° 0.2 mm 3 mps 733 mmHg 97%
    02:00 -7°C° 0.2 mm 3 mps 733 mmHg 96%
    03:00 -7°C° 0 mm 3 mps 733 mmHg 96%
    04:00 -9°C° 0 mm 4 mps 733 mmHg 95%
    05:00 -9°C° 0 mm 4 mps 733 mmHg 95%
    06:00 -10°C° 0 mm 4 mps 734 mmHg 95%
    07:00 -11°C° 0 mm 4 mps 734 mmHg 95%
    08:00 -12°C° 0 mm 4 mps 735 mmHg 95%
    09:00 -11°C° 0 mm 4 mps 735 mmHg 94%
    10:00 -11°C° 0 mm 4 mps 736 mmHg 94%
    11:00 -11°C° 0 mm 4 mps 736 mmHg 94%
    12:00 -10°C° 0 mm 4 mps 737 mmHg 94%
    13:00 -9°C° 0 mm 4 mps 737 mmHg 94%
    14:00 -8°C° 0 mm 4 mps 737 mmHg 94%
    15:00 -8°C° 0 mm 3 mps 737 mmHg 94%
    16:00 -8°C° 0 mm 3 mps 737 mmHg 94%
    17:00 -9°C° 0 mm 3 mps 738 mmHg 93%
    18:00 -9°C° 0 mm 2 mps 738 mmHg 94%
    19:00 -10°C° 0 mm 2 mps 738 mmHg 94%
    20:00 -10°C° 0 mm 1 mps 738 mmHg 94%
    21:00 -11°C° 0 mm 1 mps 738 mmHg 95%
    22:00 -13°C° 0 mm 1 mps 738 mmHg 97%
    23:00 -14°C° 0 mm 0 mps 738 mmHg 99%

    22 January, Tuesday

    Time Temperature Precipitation Wind Pressure Humidity
    00:00 -15°C° 0 mm 1 mps 738 mmHg 98%
    01:00 -15°C° 0 mm 1 mps 738 mmHg 97%
    02:00 -15°C° 0 mm 1 mps 738 mmHg 96%
    03:00 -15°C° 0 mm 1 mps 738 mmHg 96%
    04:00 -17°C° 0 mm 2 mps 737 mmHg 96%
    05:00 -17°C° 0 mm 2 mps 737 mmHg 95%
    06:00 -17°C° 0 mm 2 mps 737 mmHg 95%
    07:00 -17°C° 0 mm 2 mps 737 mmHg 94%
    08:00 -17°C° 0 mm 2 mps 736 mmHg 94%
    09:00 -16°C° 0 mm 3 mps 736 mmHg 93%
    10:00 -15°C° 0 mm 3 mps 736 mmHg 91%
    11:00 -14°C° 0 mm 4 mps 736 mmHg 90%
    12:00 -14°C° 0 mm 4 mps 735 mmHg 90%
    13:00 -12°C° 0 mm 3 mps 735 mmHg 90%
    14:00 -10°C° 0 mm 3 mps 734 mmHg 90%
    15:00 -12°C° 0 mm 3 mps 734 mmHg 92%
    16:00 -12°C° 0 mm 3 mps 733 mmHg 94%
    17:00 -13°C° 0 mm 3 mps 733 mmHg 96%
    18:00 -12°C° 0 mm 3 mps 733 mmHg 96%
    19:00 -10°C° 0 mm 3 mps 733 mmHg 96%
    20:00 -9°C° 0 mm 3 mps 732 mmHg 96%
    21:00 -9°C° 0.1 mm 3 mps 732 mmHg 96%
    22:00 -8°C° 0.1 mm 3 mps 732 mmHg 96%
    23:00 -8°C° 0.1 mm 3 mps 732 mmHg 96%

    23 January, Wednesday

    Time Temperature Precipitation Wind Pressure Humidity
    00:00 -8°C° 0.1 mm 3 mps 731 mmHg 96%
    01:00 -7°C° 0.1 mm 3 mps 731 mmHg 96%
    02:00 -7°C° 0.1 mm 3 mps 731 mmHg 96%
    03:00 -7°C° 0.2 mm 3 mps 730 mmHg 96%
    04:00 -7°C° 0.2 mm 4 mps 730 mmHg 96%
    05:00 -7°C° 0.2 mm 4 mps 729 mmHg 96%
    06:00 -7°C° 0.2 mm 4 mps 729 mmHg 96%
    07:00 -7°C° 0.2 mm 4 mps 729 mmHg 96%
    08:00 -7°C° 0.2 mm 4 mps 729 mmHg 96%
    09:00 -7°C° 0.1 mm 4 mps 729 mmHg 96%
    10:00 -7°C° 0.1 mm 4 mps 729 mmHg 96%
    11:00 -7°C° 0.1 mm 4 mps 729 mmHg 96%
    12:00 -5°C° 0 mm 4 mps 729 mmHg 96%
    13:00 -5°C° 0 mm 4 mps 728 mmHg 96%
    14:00 -5°C° 0 mm 4 mps 728 mmHg 96%
    15:00 -5°C° 0 mm 4 mps 728 mmHg 96%
    16:00 -5°C° 0 mm 4 mps 728 mmHg 96%
    17:00 -5°C° 0 mm 4 mps 728 mmHg 96%
    18:00 -6°C° 0.2 mm 5 mps 728 mmHg 96%
    19:00 -6°C° 0.2 mm 5 mps 729 mmHg 96%
    20:00 -5°C° 0.2 mm 5 mps 729 mmHg 96%
    21:00 -5°C° 0.1 mm 5 mps 729 mmHg 96%
    22:00 -5°C° 0.1 mm 5 mps 729 mmHg 96%
    23:00 -5°C° 0.1 mm 5 mps 729 mmHg 96%

    24 January, Thursday

    Time Temperature Precipitation Wind Pressure Humidity
    00:00 -5°C° 0.1 mm 5 mps 729 mmHg 96%
    01:00 -5°C° 0.1 mm 5 mps 729 mmHg 96%
    02:00 -5°C° 0.1 mm 5 mps 729 mmHg 96%
    03:00 -5°C° 0.1 mm 5 mps 728 mmHg 96%
    04:00 -5°C° 0.1 mm 5 mps 728 mmHg 96%
    05:00 -5°C° 0.1 mm 5 mps 728 mmHg 96%
    06:00 -5°C° 0.2 mm 5 mps 728 mmHg 96%
    07:00 -5°C° 0.2 mm 5 mps 728 mmHg 95%
    08:00 -6°C° 0.2 mm 5 mps 728 mmHg 95%
    09:00 -5°C° 0.1 mm 5 mps 728 mmHg 95%
    10:00 -5°C° 0.1 mm 5 mps 728 mmHg 96%
    11:00 -5°C° 0.1 mm 5 mps 728 mmHg 96%
    12:00 -4°C° 0.2 mm 5 mps 728 mmHg 97%
    13:00 -4°C° 0.2 mm 5 mps 727 mmHg 98%
    14:00 -4°C° 0.2 mm 5 mps 727 mmHg 98%
    15:00 -4°C° 0.9 mm 5 mps 727 mmHg 98%
    16:00 -2°C° 0.9 mm 5 mps 727 mmHg 97%
    17:00 -2°C° 0.9 mm 5 mps 727 mmHg 96%
    18:00 -2°C° 1.1 mm 5 mps 727 mmHg 97%
    19:00 -2°C° 1.1 mm 4 mps 727 mmHg 98%
    20:00 -2°C° 1.1 mm 4 mps 727 mmHg 98%
    21:00 0°C° 0.9 mm 3 mps 727 mmHg 99%
    22:00 0°C° 0.9 mm 3 mps 727 mmHg 99%
    23:00 +1°C° 0.9 mm 2 mps 727 mmHg 99%
    Show more